[[{"header":{"parameterUnit":"m.s-1","parameterCategory":1,"la1":30.2991,"la2":30.254,"lo1":-89.0895,"lo2":-89.0444,"dy":0.0017,"dx":0.0017,"nx":28,"ny":28,"refTime":"2026-02-15T03:00:00:Z","depth":0,"parameterNumber":2,"parameterNumberName":"U-component_of_WINDS"},"data":[0,0,0,0,0,0,0,0,0,0,0,0,0,0,0,0,0,0,0,0,0,0,0,0,0,0,0,0,0,0,0,0,0,0,0,0,0,0,0,0,0,0,0,0,0,0,0,0,0,0,0,0,0,0,0,0,0,0,0.7517,0.7517,0,0.7503,0.7503,0.7503,0.7485,0.7485,0.7484,0.7484,0.7469,0.7469,0.7469,0,0,0,0,0,0,0,0,0,0,0,0,0,0.7527,0.7527,0.7517,0.7517,0.7516,0.7503,0.7503,0.7503,0.7485,0.7485,0.7484,0.7484,0.7469,0.7469,0.7469,0,0,0,0,0,0,0,0,0,0,0,0,0,0.7519,0.7527,0.7517,0.7506,0.7505,0.7503,0.7503,0.7503,0.7485,0.7485,0.7484,0.7484,0.7469,0.7469,0.7469,0.7476,0,0,0.7468,0.7468,0,0,0,0,0,0,0,0,0.752,0.7519,0.7508,0.7507,0.7505,0.7495,0.7501,0.7494,0.7485,0.7493,0.7484,0.7484,0.7478,0.7477,0.7475,0.7475,0.7474,0.7468,0.7468,0.7468,0.7468,0,0,0,0,0,0,0,0.752,0.7519,0.7511,0.7508,0.7506,0.7502,0.75,0.75,0.7488,0.7492,0.7491,0.7489,0.7477,0.7476,0.7475,0.7474,0.7468,0.7468,0.7468,0.7467,0.7482,0.7482,0,0,0,0,0,0,0.7523,0.752,0.7512,0.7511,0.7512,0.7502,0.75,0.7499,0.7488,0.7486,0.749,0.7488,0.7476,0.7475,0.7474,0.7483,0.7468,0.7467,0.7467,0.7481,0.7482,0.7482,0,0,0,0,0,0,0.7523,0.7522,0.7512,0.7515,0.7513,0.7502,0.7501,0.7499,0.7497,0.7486,0.7484,0.749,0.7476,0.7474,0.7476,0.7482,0.7467,0.7467,0.7481,0.7481,0.7482,0.7501,0,0,0,0,0,0,0.7523,0.7522,0.7525,0.7515,0.7513,0.7514,0.7501,0.7499,0.7497,0.7495,0.7486,0.7484,0.7475,0.7477,0.7476,0.7482,0.7467,0.748,0.7481,0.7482,0.75,0.7502,0.7504,0,0,0,0,0,0.7524,0.753,0.7525,0.7524,0.7516,0.7515,0.7514,0.7504,0.7498,0.75,0.7494,0.7484,0.7482,0.7477,0.7476,0.7482,0.748,0.7481,0.7482,0.7499,0.7502,0.7504,0,0,0,0,0,0,0.7539,0.7528,0.7523,0.7526,0.7522,0.7512,0.7514,0.7507,0.7504,0.7503,0.7491,0.7489,0.7492,0.7487,0.7482,0.749,0.748,0.7481,0.7493,0.7495,0.7498,0.7499,0.7467,0,0,0,0,0,0.7543,0.7543,0.7533,0.7537,0.7535,0.7525,0.7524,0.7518,0.7512,0.751,0.7503,0.7498,0.7497,0.7496,0.7494,0.7499,0.7498,0.7503,0.7506,0.7508,0.7508,0.7513,0.7516,0.7486,0.7486,0.7486,0,0,0.755,0.7545,0.7545,0.754,0.7536,0.7536,0.7524,0.7524,0.7524,0.751,0.7512,0.7507,0.7501,0.7505,0.7506,0.7501,0.7516,0.7509,0.7511,0.751,0.7514,0.7517,0.752,0.7487,0.7487,0.7487,0,0,0.7565,0.756,0.7563,0.756,0.7555,0.7548,0.7549,0.7541,0.7538,0.7539,0.7529,0.753,0.7527,0.7523,0.7521,0.7537,0.7529,0.7537,0.7549,0.7553,0.7556,0.7558,0.7564,0.7567,0.7538,0.7538,0.7538,0,0.7575,0.7575,0.7566,0.7568,0.7566,0.7555,0.7558,0.7555,0.7549,0.7549,0.7543,0.7541,0.7535,0.754,0.7544,0.7542,0.7544,0.7537,0.7556,0.7558,0.756,0.7566,0.7568,0.7539,0.7539,0.7539,0.7539,0,0.7588,0.7589,0.7592,0.7588,0.7587,0.759,0.7581,0.7582,0.7576,0.757,0.7573,0.7567,0.7564,0.7565,0.7558,0.7569,0.7566,0.7558,0.7548,0.7564,0.7569,0.7572,0.754,0.754,0.754,0.7539,0,0,0.761,0.7603,0.7604,0.7603,0.7597,0.7597,0.76,0.7598,0.7599,0.7596,0.7598,0.7598,0.7591,0.7589,0.7582,0.7586,0.7601,0.7578,0.7578,0.7584,0.7614,0.762,0.7622,0.7596,0.7596,0.7597,0.7614,0,0.7624,0.7628,0.7621,0.7628,0.7629,0.7619,0.7622,0.7619,0.7614,0.7615,0.761,0.761,0.7601,0.76,0.7604,0.7598,0.7607,0.7597,0.7599,0.7599,0.7601,0.7625,0.7631,0.7648,0.7617,0.7617,0.7617,0,0.7639,0.7638,0.7645,0.7641,0.7641,0.7644,0.7643,0.7643,0.764,0.7637,0.7636,0.7629,0.7632,0.7623,0.7627,0.7621,0.7622,0.7619,0.762,0.7619,0.7609,0.7626,0.7653,0.7656,0.762,0.762,0.762,0,0.7656,0.7656,0.7661,0.766,0.7654,0.7657,0.7655,0.7651,0.7652,0.7651,0.7651,0.765,0.765,0.765,0.7643,0.7637,0.765,0.7639,0.7647,0.7648,0.765,0.765,0.7678,0.765,0.765,0.765,0.765,0,0.7671,0.7676,0.7668,0.7671,0.7676,0.7669,0.7675,0.7672,0.7669,0.7672,0.7663,0.7666,0.7657,0.7659,0.7653,0.7659,0.7659,0.7657,0.7655,0.7658,0.7658,0.7658,0.7657,0.7651,0.7651,0.765,0.765,0,0.769,0.7685,0.7689,0.7685,0.7684,0.7688,0.7685,0.7688,0.7684,0.7687,0.7688,0.7681,0.7684,0.7677,0.7678,0.7674,0.7683,0.768,0.7684,0.7683,0.7693,0.7692,0.7721,0.7725,0.7695,0.7695,0.7695,0,0.77,0.7704,0.7701,0.7702,0.7701,0.7703,0.7704,0.7697,0.7698,0.7697,0.77,0.7702,0.7703,0.7707,0.7702,0.7703,0.77,0.771,0.77,0.7703,0.7701,0.7701,0.7702,0.7712,0.7713,0.7713,0.7713,0,0.772,0.7718,0.7719,0.772,0.7722,0.7722,0.7722,0.7723,0.7717,0.7718,0.7721,0.7722,0.7724,0.7726,0.7726,0.7725,0.7718,0.7717,0.7719,0.7721,0.7724,0.7724,0.7691,0.7716,0.7716,0.7715,0.7715,0.7715,0.7735,0.7738,0.7737,0.774,0.7739,0.774,0.7743,0.7741,0.7743,0.7744,0.774,0.7744,0.7743,0.7743,0.7743,0.7746,0.7741,0.7744,0.7745,0.7746,0.7748,0.7724,0.7746,0.7746,0.7746,0.7746,0.7746,0,0.7754,0.7754,0.7756,0.7757,0.776,0.7754,0.7754,0.7757,0.7761,0.776,0.7762,0.7766,0.7769,0.7766,0.7768,0.7772,0.7769,0.7773,0.7772,0.7772,0.7751,0.775,0.7775,0.7775,0.7775,0.7775,0.7775,0.7775,0.7765,0.7771,0.7769,0.7776,0.7775,0.778,0.7781,0.7782,0.7782,0.7787,0.7789,0.7788,0.7787,0.779,0.7792,0.7791,0.7793,0.7798,0.7796,0.7776,0.7774,0.7771,0.7769,0.7798,0.7798,0.7817,0.7817,0.7817]},{"header":{"parameterUnit":"m.s-1","parameterCategory":1,"la1":30.2991,"la2":30.254,"lo1":-89.0895,"lo2":-89.0444,"dy":0.0017,"dx":0.0017,"nx":28,"ny":28,"refTime":"2026-02-15T03:00:00:Z","depth":0,"parameterNumber":3,"parameterNumberName":"V-component_of_WINDS"},"data":[0,0,0,0,0,0,0,0,0,0,0,0,0,0,0,0,0,0,0,0,0,0,0,0,0,0,0,0,0,0,0,0,0,0,0,0,0,0,0,0,0,0,0,0,0,0,0,0,0,0,0,0,0,0,0,0,0,0,-5.0425,-5.0426,0,-5.0528,-5.053,-5.0531,-5.0501,-5.0499,-5.0497,-5.0495,-5.0597,-5.0601,-5.0606,0,0,0,0,0,0,0,0,0,0,0,0,0,-5.02,-5.0204,-5.0425,-5.0427,-5.0428,-5.0528,-5.053,-5.0531,-5.0502,-5.0499,-5.0497,-5.0494,-5.0595,-5.0601,-5.0606,0,0,0,0,0,0,0,0,0,0,0,0,0,-5.03,-5.0206,-5.0425,-5.0425,-5.0426,-5.0528,-5.053,-5.0531,-5.0502,-5.0499,-5.0496,-5.0493,-5.0593,-5.06,-5.0607,-5.0713,0,0,-5.0628,-5.0631,0,0,0,0,0,0,0,0,-5.0294,-5.0308,-5.0424,-5.0426,-5.0427,-5.0499,-5.0487,-5.0592,-5.0503,-5.0473,-5.0495,-5.0491,-5.0566,-5.0575,-5.0602,-5.0718,-5.0722,-5.0629,-5.0633,-5.0636,-5.0638,0,0,0,0,0,0,0,-5.0287,-5.0304,-5.0466,-5.0426,-5.0428,-5.0419,-5.043,-5.0507,-5.0536,-5.0476,-5.0474,-5.0487,-5.0567,-5.0595,-5.0604,-5.0724,-5.0629,-5.0635,-5.0639,-5.0642,-5.0934,-5.0937,0,0,0,0,0,0,-5.028,-5.0298,-5.0463,-5.0469,-5.0352,-5.0426,-5.0438,-5.0479,-5.0535,-5.0541,-5.0489,-5.0485,-5.0584,-5.0596,-5.0607,-5.0736,-5.0636,-5.0643,-5.0647,-5.093,-5.0934,-5.0938,0,0,0,0,0,0,-5.0275,-5.0295,-5.0458,-5.0383,-5.0403,-5.0433,-5.0479,-5.0483,-5.0511,-5.0546,-5.055,-5.0513,-5.0582,-5.0597,-5.0688,-5.0739,-5.0646,-5.0652,-5.0926,-5.0931,-5.0936,-5.0995,0,0,0,0,0,0,-5.0269,-5.0293,-5.0335,-5.0384,-5.0408,-5.0538,-5.0483,-5.0487,-5.0523,-5.0519,-5.0569,-5.0574,-5.0581,-5.0677,-5.0695,-5.0747,-5.0658,-5.0921,-5.0928,-5.0935,-5.0988,-5.1001,-5.1013,0,0,0,0,0,-5.0261,-5.0346,-5.0337,-5.0357,-5.046,-5.0541,-5.0554,-5.0562,-5.0528,-5.0569,-5.0592,-5.0573,-5.0731,-5.0687,-5.0706,-5.0762,-5.0918,-5.0926,-5.0934,-5.0983,-5.0999,-5.1012,0,0,0,0,0,0,-5.03,-5.0352,-5.0343,-5.0447,-5.049,-5.0536,-5.0589,-5.0578,-5.0631,-5.0624,-5.0629,-5.0641,-5.0734,-5.0756,-5.0707,-5.0868,-5.0819,-5.0831,-5.085,-5.0865,-5.0877,-5.087,-5.0664,0,0,0,0,0,-5.0321,-5.0384,-5.0426,-5.0513,-5.0535,-5.0559,-5.0594,-5.0596,-5.0641,-5.0658,-5.0687,-5.073,-5.079,-5.0828,-5.0885,-5.0991,-5.1002,-5.1039,-5.1051,-5.1061,-5.1071,-5.113,-5.1147,-5.0964,-5.0964,-5.0964,0,0,-5.0364,-5.0401,-5.044,-5.0522,-5.0556,-5.062,-5.0574,-5.0644,-5.0691,-5.0668,-5.0756,-5.0779,-5.0827,-5.0926,-5.0971,-5.0948,-5.1124,-5.1071,-5.1078,-5.1084,-5.114,-5.1158,-5.1173,-5.097,-5.0969,-5.0968,0,0,-5.0476,-5.051,-5.0588,-5.0623,-5.0675,-5.069,-5.0709,-5.0757,-5.0772,-5.0861,-5.0845,-5.0901,-5.1003,-5.1039,-5.107,-5.1197,-5.1182,-5.1215,-5.1278,-5.1336,-5.135,-5.1363,-5.1409,-5.1426,-5.1225,-5.1225,-5.1225,0,-5.0523,-5.0621,-5.0628,-5.07,-5.0737,-5.0721,-5.0799,-5.0832,-5.09,-5.0925,-5.0898,-5.1027,-5.1058,-5.1166,-5.1197,-5.1223,-5.1244,-5.1209,-5.1348,-5.1361,-5.1373,-5.1417,-5.1434,-5.1229,-5.1229,-5.1228,-5.1228,0,-5.0677,-5.0745,-5.08,-5.0868,-5.0911,-5.0986,-5.1004,-5.1046,-5.1044,-5.1062,-5.1152,-5.1189,-5.1254,-5.1279,-5.1277,-5.1387,-5.1371,-5.1346,-5.1298,-5.1394,-5.1436,-5.1452,-5.1235,-5.1233,-5.1232,-5.1231,0,0,-5.0816,-5.0888,-5.0909,-5.094,-5.0997,-5.1049,-5.1123,-5.1187,-5.1224,-5.1271,-5.1333,-5.142,-5.1398,-5.1433,-5.1435,-5.1486,-5.1585,-5.1454,-5.1456,-5.1478,-5.171,-5.1729,-5.1749,-5.1575,-5.1579,-5.1581,-5.1706,0,-5.0934,-5.1066,-5.1075,-5.1193,-5.1257,-5.1243,-5.1307,-5.1348,-5.1367,-5.1422,-5.1442,-5.1505,-5.147,-5.1491,-5.154,-5.1563,-5.1632,-5.1554,-5.1633,-5.1636,-5.1623,-5.177,-5.1791,-5.1907,-5.1722,-5.1725,-5.1727,0,-5.1089,-5.1144,-5.1269,-5.1319,-5.1345,-5.1403,-5.1464,-5.1517,-5.1564,-5.1574,-5.1614,-5.161,-5.1685,-5.1634,-5.1737,-5.1684,-5.1716,-5.1733,-5.1737,-5.1745,-5.1688,-5.1783,-5.1944,-5.1961,-5.1752,-5.175,-5.1748,0,-5.118,-5.1284,-5.1373,-5.14,-5.1459,-5.1501,-5.1527,-5.1571,-5.161,-5.1662,-5.1687,-5.1747,-5.1779,-5.1825,-5.1837,-5.1798,-5.1941,-5.189,-5.1951,-5.1951,-5.1982,-5.198,-5.2151,-5.2002,-5.2001,-5.2001,-5.2001,0,-5.1312,-5.1389,-5.1415,-5.147,-5.1556,-5.1565,-5.165,-5.1674,-5.1713,-5.1772,-5.1762,-5.1817,-5.1829,-5.1886,-5.1895,-5.198,-5.1994,-5.2004,-5.2006,-5.2006,-5.2005,-5.2028,-5.202,-5.2006,-5.2005,-5.2004,-5.2003,0,-5.1428,-5.1448,-5.1544,-5.1593,-5.1608,-5.1669,-5.1711,-5.1763,-5.1781,-5.1855,-5.1873,-5.19,-5.1967,-5.1983,-5.2062,-5.2068,-5.2169,-5.2162,-5.2154,-5.2154,-5.2215,-5.2209,-5.2407,-5.2434,-5.2266,-5.2268,-5.2269,0,-5.1511,-5.157,-5.1627,-5.1666,-5.1695,-5.1758,-5.1798,-5.1809,-5.1851,-5.191,-5.1955,-5.2021,-5.2075,-5.2182,-5.2209,-5.2269,-5.2264,-5.2329,-5.2273,-5.2272,-5.2267,-5.2263,-5.227,-5.234,-5.2342,-5.2344,-5.2345,0,-5.1656,-5.1664,-5.1722,-5.1785,-5.1834,-5.1883,-5.193,-5.1963,-5.1981,-5.2028,-5.2097,-5.2139,-5.2221,-5.2287,-5.2348,-5.2374,-5.2363,-5.2362,-5.238,-5.2381,-5.2374,-5.238,-5.2185,-5.2358,-5.2356,-5.2356,-5.2355,-5.2354,-5.1759,-5.1812,-5.1861,-5.1927,-5.1964,-5.2008,-5.2061,-5.2086,-5.2144,-5.2213,-5.2215,-5.2291,-5.2336,-5.2418,-5.2448,-5.2506,-5.2486,-5.2511,-5.2518,-5.2524,-5.253,-5.2364,-5.2517,-5.2517,-5.2516,-5.2516,-5.2516,0,-5.1905,-5.1936,-5.1997,-5.2064,-5.2116,-5.2103,-5.2154,-5.2198,-5.2266,-5.231,-5.2364,-5.2444,-5.2508,-5.2539,-5.2603,-5.2644,-5.264,-5.266,-5.2657,-5.2664,-5.2544,-5.2523,-5.2662,-5.2662,-5.2662,-5.2662,-5.2662,-5.2662,-5.1987,-5.2077,-5.209,-5.2198,-5.2228,-5.2303,-5.2334,-5.2375,-5.2411,-5.2501,-5.2555,-5.2576,-5.2615,-5.2682,-5.274,-5.2747,-5.2771,-5.2794,-5.2799,-5.2687,-5.2672,-5.2658,-5.2638,-5.2799,-5.2799,-5.2915,-5.2916,-5.2916]}]]